owner,sensor,date,latitude,longitude,vertical_datum,wind_speed,wind_to_direction,wind_speed_of_gust,qcFlag 
ADCP,ioos:station:wmo:42369:1,2011-02-01T00:00:00Z,27.2070,-90.2830,60.4,4.6,106.0,99.0,'11111222,11111222,11144222' 
ADCP,ioos:station:wmo:42369:1,2011-02-01T00:20:00Z,27.2070,-90.2830,60.4,4.9,106.0,99.0,'11111222,11111222,11144222' 
ADCP,ioos:station:wmo:42369:1,2011-02-01T00:40:00Z,27.2070,-90.2830,60.4,5.3,102.0,99.0,'11111222,11111222,11144222' 
ADCP,ioos:station:wmo:42369:1,2011-02-01T01:00:00Z,27.2070,-90.2830,60.4,5.1,109.0,99.0,'11111222,11111222,11144222' 
ADCP,ioos:station:wmo:42369:1,2011-02-01T01:20:00Z,27.2070,-90.2830,60.4,5.9,106.0,99.0,'11111222,11111222,11144222' 
ADCP,ioos:station:wmo:42369:1,2011-02-01T01:40:00Z,27.2070,-90.2830,60.4,6.0,106.0,99.0,'11111222,11111222,11144222' 
ADCP,ioos:station:wmo:42369:1,2011-02-01T02:00:00Z,27.2070,-90.2830,60.4,5.2,111.0,99.0,'11111222,11111222,11144222' 
ADCP,ioos:station:wmo:42369:1,2011-02-01T02:20:00Z,27.2070,-90.2830,60.4,6.6,122.0,99.0,'11111222,11111222,11144222' 
ADCP,ioos:station:wmo:42369:1,2011-02-01T02:40:00Z,27.2070,-90.2830,60.4,7.7,125.0,99.0,'11111222,11111222,11144222' 
ADCP,ioos:station:wmo:42369:1,2011-02-01T03:00:00Z,27.2070,-90.2830,60.4,8.4,127.0,99.0,'11111222,11111222,11144222' 
ADCP,ioos:station:wmo:42369:1,2011-02-01T03:20:00Z,27.2070,-90.2830,60.4,8.3,127.0,99.0,'11111222,11111222,11144222' 
ADCP,ioos:station:wmo:42369:1,2011-02-01T03:40:00Z,27.2070,-90.2830,60.4,8.2,131.0,99.0,'11111222,11111222,11144222' 
ADCP,ioos:station:wmo:42369:1,2011-02-01T04:00:00Z,27.2070,-90.2830,60.4,8.4,131.0,99.0,'11111222,11111222,11144222' 
ADCP,ioos:station:wmo:42369:1,2011-02-01T04:20:00Z,27.2070,-90.2830,60.4,8.7,131.0,99.0,'11111222,11111222,11144222' 
ADCP,ioos:station:wmo:42369:1,2011-02-01T04:40:00Z,27.2070,-90.2830,60.4,8.6,131.0,99.0,'11111222,11111222,11144222' 
ADCP,ioos:station:wmo:42369:1,2011-02-01T05:00:00Z,27.2070,-90.2830,60.4,7.3,133.0,99.0,'11111222,11111222,11144222' 
ADCP,ioos:station:wmo:42369:1,2011-02-01T05:20:00Z,27.2070,-90.2830,60.4,5.2,139.0,99.0,'11111222,11111222,11144222' 
ADCP,ioos:station:wmo:42369:1,2011-02-01T05:40:00Z,27.2070,-90.2830,60.4,5.6,137.0,99.0,'11111222,11111222,11144222' 
ADCP,ioos:station:wmo:42369:1,2011-02-01T06:00:00Z,27.2070,-90.2830,60.4,4.7,142.0,99.0,'11111222,11111222,11144222' 
ADCP,ioos:station:wmo:42369:1,2011-02-01T06:20:00Z,27.2070,-90.2830,60.4,4.9,141.0,99.0,'11111222,11111222,11144222' 
ADCP,ioos:station:wmo:42369:1,2011-02-01T06:40:00Z,27.2070,-90.2830,60.4,4.3,146.0,99.0,'11111222,11111222,11144222' 
ADCP,ioos:station:wmo:42369:1,2011-02-01T07:00:00Z,27.2070,-90.2830,60.4,5.4,139.0,99.0,'11111222,11111222,11144222' 
ADCP,ioos:station:wmo:42369:1,2011-02-01T07:20:00Z,27.2070,-90.2830,60.4,4.4,146.0,99.0,'11111222,11111222,11144222' 
ADCP,ioos:station:wmo:42369:1,2011-02-01T07:40:00Z,27.2070,-90.2830,60.4,4.1,146.0,99.0,'11111222,11111222,11144222' 
ADCP,ioos:station:wmo:42369:1,2011-02-01T08:00:00Z,27.2070,-90.2830,60.4,5.0,140.0,99.0,'11111222,11111222,11144222' 
ADCP,ioos:station:wmo:42369:1,2011-02-01T08:20:00Z,27.2070,-90.2830,60.4,6.8,134.0,99.0,'11111222,11111222,11144222' 
ADCP,ioos:station:wmo:42369:1,2011-02-01T08:40:00Z,27.2070,-90.2830,60.4,6.7,134.0,99.0,'11111222,11111222,11144222' 
ADCP,ioos:station:wmo:42369:1,2011-02-01T09:00:00Z,27.2070,-90.2830,60.4,5.8,137.0,99.0,'11111222,11111222,11144222' 
ADCP,ioos:station:wmo:42369:1,2011-02-01T09:20:00Z,27.2070,-90.2830,60.4,6.5,134.0,99.0,'11111222,11111222,11144222' 
ADCP,ioos:station:wmo:42369:1,2011-02-01T09:40:00Z,27.2070,-90.2830,60.4,4.7,144.0,99.0,'11111222,11111222,11144222' 
ADCP,ioos:station:wmo:42369:1,2011-02-01T10:00:00Z,27.2070,-90.2830,60.4,4.3,150.0,99.0,'11111222,11111222,11144222' 
ADCP,ioos:station:wmo:42369:1,2011-02-01T11:00:00Z,27.2070,-90.2830,60.4,4.1,154.0,99.0,'11111222,11111222,11144222' 
ADCP,ioos:station:wmo:42369:1,2011-02-01T11:20:00Z,27.2070,-90.2830,60.4,4.3,155.0,99.0,'11111222,11111222,11144222' 
ADCP,ioos:station:wmo:42369:1,2011-02-01T11:40:00Z,27.2070,-90.2830,60.4,4.3,155.0,99.0,'11111222,11111222,11144222' 
ADCP,ioos:station:wmo:42369:1,2011-02-01T12:00:00Z,27.2070,-90.2830,60.4,4.2,155.0,99.0,'11111222,11111222,11144222' 
ADCP,ioos:station:wmo:42369:1,2011-02-01T12:20:00Z,27.2070,-90.2830,60.4,4.5,153.0,99.0,'11111222,11111222,11144222' 
ADCP,ioos:station:wmo:42369:1,2011-02-01T12:40:00Z,27.2070,-90.2830,60.4,4.8,154.0,99.0,'11111222,11111222,11144222' 
ADCP,ioos:station:wmo:42369:1,2011-02-01T13:00:00Z,27.2070,-90.2830,60.4,5.5,154.0,99.0,'11111222,11111222,11144222' 
ADCP,ioos:station:wmo:42369:1,2011-02-01T13:20:00Z,27.2070,-90.2830,60.4,5.7,154.0,99.0,'11111222,11111222,11144222' 
ADCP,ioos:station:wmo:42369:1,2011-02-01T13:40:00Z,27.2070,-90.2830,60.4,7.8,158.0,99.0,'11111222,11111222,11144222' 
ADCP,ioos:station:wmo:42369:1,2011-02-01T14:00:00Z,27.2070,-90.2830,60.4,9.4,159.0,99.0,'11111222,11111222,11144222' 
ADCP,ioos:station:wmo:42369:1,2011-02-01T14:20:00Z,27.2070,-90.2830,60.4,8.6,160.0,99.0,'11111222,11111222,11144222' 
ADCP,ioos:station:wmo:42369:1,2011-02-01T14:40:00Z,27.2070,-90.2830,60.4,9.0,163.0,99.0,'11111222,11111222,11144222' 
ADCP,ioos:station:wmo:42369:1,2011-02-01T15:00:00Z,27.2070,-90.2830,60.4,9.8,164.0,99.0,'11111222,11111222,11144222' 
ADCP,ioos:station:wmo:42369:1,2011-02-01T15:20:00Z,27.2070,-90.2830,60.4,10.5,166.0,99.0,'11111222,11111222,11144222' 
ADCP,ioos:station:wmo:42369:1,2011-02-01T15:40:00Z,27.2070,-90.2830,60.4,12.0,168.0,99.0,'11111222,11111222,11144222' 
ADCP,ioos:station:wmo:42369:1,2011-02-01T16:00:00Z,27.2070,-90.2830,60.4,12.6,168.0,99.0,'11111222,11111222,11144222' 
ADCP,ioos:station:wmo:42369:1,2011-02-01T16:20:00Z,27.2070,-90.2830,60.4,12.6,171.0,99.0,'11111222,11111222,11144222' 
ADCP,ioos:station:wmo:42369:1,2011-02-01T16:40:00Z,27.2070,-90.2830,60.4,12.7,172.0,99.0,'11111222,11111222,11144222' 
ADCP,ioos:station:wmo:42369:1,2011-02-01T17:00:00Z,27.2070,-90.2830,60.4,12.3,176.0,99.0,'11111222,11111222,11144222' 
ADCP,ioos:station:wmo:42369:1,2011-02-01T17:20:00Z,27.2070,-90.2830,60.4,11.7,177.0,99.0,'11111222,11111222,11144222' 
ADCP,ioos:station:wmo:42369:1,2011-02-01T17:40:00Z,27.2070,-90.2830,60.4,9.7,184.0,99.0,'11111222,11111222,11144222' 
ADCP,ioos:station:wmo:42369:1,2011-02-01T18:00:00Z,27.2070,-90.2830,60.4,8.0,194.0,99.0,'11111222,11111222,11144222' 
ADCP,ioos:station:wmo:42369:1,2011-02-01T18:20:00Z,27.2070,-90.2830,60.4,9.6,187.0,99.0,'11111222,11111222,11144222' 
ADCP,ioos:station:wmo:42369:1,2011-02-01T18:40:00Z,27.2070,-90.2830,60.4,9.8,188.0,99.0,'11111222,11111222,11144222' 
ADCP,ioos:station:wmo:42369:1,2011-02-01T19:00:00Z,27.2070,-90.2830,60.4,11.4,184.0,99.0,'11111222,11111222,11144222' 
ADCP,ioos:station:wmo:42369:1,2011-02-01T19:20:00Z,27.2070,-90.2830,60.4,9.7,182.0,99.0,'11111222,11111222,11144222' 
ADCP,ioos:station:wmo:42369:1,2011-02-01T19:40:00Z,27.2070,-90.2830,60.4,10.8,183.0,99.0,'11111222,11111222,11144222' 
ADCP,ioos:station:wmo:42369:1,2011-02-01T20:00:00Z,27.2070,-90.2830,60.4,11.5,180.0,99.0,'11111222,11111222,11144222' 
ADCP,ioos:station:wmo:42369:1,2011-02-01T20:20:00Z,27.2070,-90.2830,60.4,11.8,183.0,99.0,'11111222,11111222,11144222' 
ADCP,ioos:station:wmo:42369:1,2011-02-01T20:40:00Z,27.2070,-90.2830,60.4,11.8,187.0,99.0,'11111222,11111222,11144222' 
ADCP,ioos:station:wmo:42369:1,2011-02-01T21:00:00Z,27.2070,-90.2830,60.4,11.2,190.0,99.0,'11111222,11111222,11144222' 
ADCP,ioos:station:wmo:42369:1,2011-02-01T21:20:00Z,27.2070,-90.2830,60.4,11.9,186.0,99.0,'11111222,11111222,11144222' 
ADCP,ioos:station:wmo:42369:1,2011-02-01T21:40:00Z,27.2070,-90.2830,60.4,11.5,188.0,99.0,'11111222,11111222,11144222' 
ADCP,ioos:station:wmo:42369:1,2011-02-01T22:00:00Z,27.2070,-90.2830,60.4,11.1,191.0,99.0,'11111222,11111222,11144222' 
ADCP,ioos:station:wmo:42369:1,2011-02-01T22:20:00Z,27.2070,-90.2830,60.4,11.1,190.0,99.0,'11111222,11111222,11144222' 
ADCP,ioos:station:wmo:42369:1,2011-02-01T22:40:00Z,27.2070,-90.2830,60.4,9.7,212.0,99.0,'11111222,11111222,11144222' 
ADCP,ioos:station:wmo:42369:1,2011-02-01T23:20:00Z,27.2070,-90.2830,60.4,2.8,292.0,99.0,'11111222,11111222,11144222' 
ADCP,ioos:station:wmo:42369:1,2011-02-01T23:40:00Z,27.2070,-90.2830,60.4,4.4,306.0,99.0,'11111222,11111222,11144222' 
ADCP,ioos:station:wmo:42369:1,2011-02-02T00:00:00Z,27.2070,-90.2830,60.4,3.6,306.0,99.0,'11111222,11111222,11144222' 
ADCP,ioos:station:wmo:42369:1,2011-02-02T00:20:00Z,27.2070,-90.2830,60.4,4.7,295.0,99.0,'11111222,11111222,11144222' 
ADCP,ioos:station:wmo:42369:1,2011-02-02T00:40:00Z,27.2070,-90.2830,60.4,5.0,294.0,99.0,'11111222,11111222,11144222' 
ADCP,ioos:station:wmo:42369:1,2011-02-02T01:00:00Z,27.2070,-90.2830,60.4,4.8,298.0,99.0,'11111222,11111222,11144222' 
ADCP,ioos:station:wmo:42369:1,2011-02-02T01:20:00Z,27.2070,-90.2830,60.4,4.6,299.0,99.0,'11111222,11111222,11144222' 
ADCP,ioos:station:wmo:42369:1,2011-02-02T01:40:00Z,27.2070,-90.2830,60.4,4.9,284.0,99.0,'11111222,11111222,11144222' 
ADCP,ioos:station:wmo:42369:1,2011-02-02T02:00:00Z,27.2070,-90.2830,60.4,5.5,302.0,99.0,'11111222,11111222,11144222' 
ADCP,ioos:station:wmo:42369:1,2011-02-02T02:20:00Z,27.2070,-90.2830,60.4,5.3,298.0,99.0,'11111222,11111222,11144222' 
ADCP,ioos:station:wmo:42369:1,2011-02-02T02:40:00Z,27.2070,-90.2830,60.4,4.7,300.0,99.0,'11111222,11111222,11144222' 
ADCP,ioos:station:wmo:42369:1,2011-02-02T03:00:00Z,27.2070,-90.2830,60.4,5.5,294.0,99.0,'11111222,11111222,11144222' 
ADCP,ioos:station:wmo:42369:1,2011-02-02T03:20:00Z,27.2070,-90.2830,60.4,6.9,310.0,99.0,'11111222,11111222,11144222' 
ADCP,ioos:station:wmo:42369:1,2011-02-02T03:40:00Z,27.2070,-90.2830,60.4,6.9,304.0,99.0,'11111222,11111222,11144222' 
ADCP,ioos:station:wmo:42369:1,2011-02-02T04:00:00Z,27.2070,-90.2830,60.4,6.8,299.0,99.0,'11111222,11111222,11144222' 
ADCP,ioos:station:wmo:42369:1,2011-02-02T04:20:00Z,27.2070,-90.2830,60.4,7.6,302.0,99.0,'11111222,11111222,11144222' 
ADCP,ioos:station:wmo:42369:1,2011-02-02T04:40:00Z,27.2070,-90.2830,60.4,6.9,303.0,99.0,'11111222,11111222,11144222' 
ADCP,ioos:station:wmo:42369:1,2011-02-02T05:00:00Z,27.2070,-90.2830,60.4,7.5,307.0,99.0,'11111222,11111222,11144222' 
ADCP,ioos:station:wmo:42369:1,2011-02-02T05:20:00Z,27.2070,-90.2830,60.4,6.6,301.0,99.0,'11111222,11111222,11144222' 
ADCP,ioos:station:wmo:42369:1,2011-02-02T05:40:00Z,27.2070,-90.2830,60.4,8.2,298.0,99.0,'11111222,11111222,11144222' 
ADCP,ioos:station:wmo:42369:1,2011-02-02T06:00:00Z,27.2070,-90.2830,60.4,8.6,263.0,99.0,'11111222,11111222,11144222' 
ADCP,ioos:station:wmo:42369:1,2011-02-02T06:20:00Z,27.2070,-90.2830,60.4,9.3,239.0,99.0,'11111222,11111222,11144222' 
ADCP,ioos:station:wmo:42369:1,2011-02-02T06:40:00Z,27.2070,-90.2830,60.4,11.5,117.0,99.0,'11111222,11111222,11144222' 
ADCP,ioos:station:wmo:42369:1,2011-02-02T07:00:00Z,27.2070,-90.2830,60.4,11.5,149.0,99.0,'11111222,11111222,11144222' 
ADCP,ioos:station:wmo:42369:1,2011-02-02T07:20:00Z,27.2070,-90.2830,60.4,13.5,57.0,99.0,'11111222,11111222,11144222' 
ADCP,ioos:station:wmo:42369:1,2011-02-02T07:40:00Z,27.2070,-90.2830,60.4,12.8,81.0,99.0,'11111222,11111222,11144222' 
ADCP,ioos:station:wmo:42369:1,2011-02-02T08:00:00Z,27.2070,-90.2830,60.4,13.6,26.0,99.0,'11111222,11111222,11144222' 
ADCP,ioos:station:wmo:42369:1,2011-02-02T08:20:00Z,27.2070,-90.2830,60.4,13.4,27.0,99.0,'11111222,11111222,11144222' 
ADCP,ioos:station:wmo:42369:1,2011-02-02T08:40:00Z,27.2070,-90.2830,60.4,12.2,26.0,99.0,'11111222,11111222,11144222' 
ADCP,ioos:station:wmo:42369:1,2011-02-02T09:00:00Z,27.2070,-90.2830,60.4,12.8,26.0,99.0,'11111222,11111222,11144222' 
ADCP,ioos:station:wmo:42369:1,2011-02-02T09:20:00Z,27.2070,-90.2830,60.4,11.7,34.0,99.0,'11111222,11111222,11144222' 
ADCP,ioos:station:wmo:42369:1,2011-02-02T09:40:00Z,27.2070,-90.2830,60.4,12.5,21.0,99.0,'11111222,11111222,11144222' 
ADCP,ioos:station:wmo:42369:1,2011-02-02T10:00:00Z,27.2070,-90.2830,60.4,12.5,28.0,99.0,'11111222,11111222,11144222' 
ADCP,ioos:station:wmo:42369:1,2011-02-02T10:20:00Z,27.2070,-90.2830,60.4,12.0,29.0,99.0,'11111222,11111222,11144222' 
ADCP,ioos:station:wmo:42369:1,2011-02-02T10:40:00Z,27.2070,-90.2830,60.4,11.9,54.0,99.0,'11111222,11111222,11144222' 
ADCP,ioos:station:wmo:42369:1,2011-02-02T11:00:00Z,27.2070,-90.2830,60.4,12.2,27.0,99.0,'11111222,11111222,11144222' 
ADCP,ioos:station:wmo:42369:1,2011-02-02T11:20:00Z,27.2070,-90.2830,60.4,12.0,23.0,99.0,'11111222,11111222,11144222' 
ADCP,ioos:station:wmo:42369:1,2011-02-02T11:40:00Z,27.2070,-90.2830,60.4,12.1,30.0,99.0,'11111222,11111222,11144222' 
ADCP,ioos:station:wmo:42369:1,2011-02-02T12:00:00Z,27.2070,-90.2830,60.4,11.9,27.0,99.0,'11111222,11111222,11144222' 
ADCP,ioos:station:wmo:42369:1,2011-02-02T12:20:00Z,27.2070,-90.2830,60.4,11.7,41.0,99.0,'11111222,11111222,11144222' 
ADCP,ioos:station:wmo:42369:1,2011-02-02T12:40:00Z,27.2070,-90.2830,60.4,12.3,63.0,99.0,'11111222,11111222,11144222' 
ADCP,ioos:station:wmo:42369:1,2011-02-02T13:00:00Z,27.2070,-90.2830,60.4,12.9,67.0,99.0,'11111222,11111222,11144222' 
ADCP,ioos:station:wmo:42369:1,2011-02-02T13:20:00Z,27.2070,-90.2830,60.4,12.3,92.0,99.0,'11111222,11111222,11144222' 
ADCP,ioos:station:wmo:42369:1,2011-02-02T13:40:00Z,27.2070,-90.2830,60.4,12.7,40.0,99.0,'11111222,11111222,11144222' 
ADCP,ioos:station:wmo:42369:1,2011-02-02T14:00:00Z,27.2070,-90.2830,60.4,11.5,117.0,99.0,'11111222,11111222,11144222' 
ADCP,ioos:station:wmo:42369:1,2011-02-02T14:20:00Z,27.2070,-90.2830,60.4,11.8,62.0,99.0,'11111222,11111222,11144222' 
ADCP,ioos:station:wmo:42369:1,2011-02-02T14:40:00Z,27.2070,-90.2830,60.4,12.6,35.0,99.0,'11111222,11111222,11144222' 
ADCP,ioos:station:wmo:42369:1,2011-02-02T15:00:00Z,27.2070,-90.2830,60.4,13.0,41.0,99.0,'11111222,11111222,11144222' 
ADCP,ioos:station:wmo:42369:1,2011-02-02T15:20:00Z,27.2070,-90.2830,60.4,11.5,37.0,99.0,'11111222,11111222,11144222' 
ADCP,ioos:station:wmo:42369:1,2011-02-02T15:40:00Z,27.2070,-90.2830,60.4,10.6,39.0,99.0,'11111222,11111222,11144222' 
ADCP,ioos:station:wmo:42369:1,2011-02-02T16:00:00Z,27.2070,-90.2830,60.4,11.0,38.0,99.0,'11111222,11111222,11144222' 
ADCP,ioos:station:wmo:42369:1,2011-02-02T16:20:00Z,27.2070,-90.2830,60.4,11.6,35.0,99.0,'11111222,11111222,11144222' 
ADCP,ioos:station:wmo:42369:1,2011-02-02T16:40:00Z,27.2070,-90.2830,60.4,10.9,44.0,99.0,'11111222,11111222,11144222' 
ADCP,ioos:station:wmo:42369:1,2011-02-02T17:00:00Z,27.2070,-90.2830,60.4,8.4,46.0,99.0,'11111222,11111222,11144222' 
ADCP,ioos:station:wmo:42369:1,2011-02-02T17:20:00Z,27.2070,-90.2830,60.4,4.8,63.0,99.0,'11111222,11111222,11144222' 
ADCP,ioos:station:wmo:42369:1,2011-02-02T17:40:00Z,27.2070,-90.2830,60.4,8.0,44.0,99.0,'11111222,11111222,11144222' 
ADCP,ioos:station:wmo:42369:1,2011-02-02T18:00:00Z,27.2070,-90.2830,60.4,6.8,50.0,99.0,'11111222,11111222,11144222' 
ADCP,ioos:station:wmo:42369:1,2011-02-02T18:20:00Z,27.2070,-90.2830,60.4,4.3,73.0,99.0,'11111222,11111222,11144222' 
ADCP,ioos:station:wmo:42369:1,2011-02-02T18:40:00Z,27.2070,-90.2830,60.4,4.7,74.0,99.0,'11111222,11111222,11144222' 
ADCP,ioos:station:wmo:42369:1,2011-02-02T19:00:00Z,27.2070,-90.2830,60.4,4.1,75.0,99.0,'11111222,11111222,11144222' 
ADCP,ioos:station:wmo:42369:1,2011-02-02T19:20:00Z,27.2070,-90.2830,60.4,5.2,63.0,99.0,'11111222,11111222,11144222' 
ADCP,ioos:station:wmo:42369:1,2011-02-02T19:40:00Z,27.2070,-90.2830,60.4,4.4,77.0,99.0,'11111222,11111222,11144222' 
ADCP,ioos:station:wmo:42369:1,2011-02-02T20:00:00Z,27.2070,-90.2830,60.4,5.9,63.0,99.0,'11111222,11111222,11144222' 
ADCP,ioos:station:wmo:42369:1,2011-02-02T20:20:00Z,27.2070,-90.2830,60.4,5.0,71.0,99.0,'11111222,11111222,11144222' 
ADCP,ioos:station:wmo:42369:1,2011-02-02T20:40:00Z,27.2070,-90.2830,60.4,5.2,62.0,99.0,'11111222,11111222,11144222' 
ADCP,ioos:station:wmo:42369:1,2011-02-02T21:00:00Z,27.2070,-90.2830,60.4,5.3,63.0,99.0,'11111222,11111222,11144222' 
ADCP,ioos:station:wmo:42369:1,2011-02-02T21:20:00Z,27.2070,-90.2830,60.4,4.5,67.0,99.0,'11111222,11111222,11144222' 
ADCP,ioos:station:wmo:42369:1,2011-02-02T21:40:00Z,27.2070,-90.2830,60.4,4.1,73.0,99.0,'11111222,11111222,11144222' 
ADCP,ioos:station:wmo:42369:1,2011-02-02T22:00:00Z,27.2070,-90.2830,60.4,4.4,65.0,99.0,'11111222,11111222,11144222' 
ADCP,ioos:station:wmo:42369:1,2011-02-02T22:40:00Z,27.2070,-90.2830,60.4,5.2,62.0,99.0,'11111222,11111222,11144222' 
ADCP,ioos:station:wmo:42369:1,2011-02-02T23:00:00Z,27.2070,-90.2830,60.4,4.9,68.0,99.0,'11111222,11111222,11144222' 
ADCP,ioos:station:wmo:42369:1,2011-02-02T23:20:00Z,27.2070,-90.2830,60.4,5.8,61.0,99.0,'11111222,11111222,11144222' 
ADCP,ioos:station:wmo:42369:1,2011-02-02T23:40:00Z,27.2070,-90.2830,60.4,4.5,74.0,99.0,'11111222,11111222,11144222' 
ADCP,ioos:station:wmo:42369:1,2011-02-03T00:00:00Z,27.2070,-90.2830,60.4,4.7,69.0,99.0,'11111222,11111222,11144222' 
ADCP,ioos:station:wmo:42369:1,2011-02-03T00:20:00Z,27.2070,-90.2830,60.4,7.3,56.0,99.0,'11111222,11111222,11144222' 
ADCP,ioos:station:wmo:42369:1,2011-02-03T00:40:00Z,27.2070,-90.2830,60.4,8.6,48.0,99.0,'11111222,11111222,11144222' 
ADCP,ioos:station:wmo:42369:1,2011-02-03T01:00:00Z,27.2070,-90.2830,60.4,7.8,56.0,99.0,'11111222,11111222,11144222' 
ADCP,ioos:station:wmo:42369:1,2011-02-03T01:20:00Z,27.2070,-90.2830,60.4,8.2,52.0,99.0,'11111222,11111222,11144222' 
ADCP,ioos:station:wmo:42369:1,2011-02-03T01:40:00Z,27.2070,-90.2830,60.4,6.8,52.0,99.0,'11111222,11111222,11144222' 
ADCP,ioos:station:wmo:42369:1,2011-02-03T02:00:00Z,27.2070,-90.2830,60.4,4.6,71.0,99.0,'11111222,11111222,11144222' 
ADCP,ioos:station:wmo:42369:1,2011-02-03T02:20:00Z,27.2070,-90.2830,60.4,3.9,75.0,99.0,'11111222,11111222,11144222' 
ADCP,ioos:station:wmo:42369:1,2011-02-03T02:40:00Z,27.2070,-90.2830,60.4,4.6,65.0,99.0,'11111222,11111222,11144222' 
ADCP,ioos:station:wmo:42369:1,2011-02-03T03:00:00Z,27.2070,-90.2830,60.4,4.2,71.0,99.0,'11111222,11111222,11144222' 
ADCP,ioos:station:wmo:42369:1,2011-02-03T03:20:00Z,27.2070,-90.2830,60.4,6.0,57.0,99.0,'11111222,11111222,11144222' 
ADCP,ioos:station:wmo:42369:1,2011-02-03T03:40:00Z,27.2070,-90.2830,60.4,6.0,64.0,99.0,'11111222,11111222,11144222' 
ADCP,ioos:station:wmo:42369:1,2011-02-03T04:00:00Z,27.2070,-90.2830,60.4,7.0,54.0,99.0,'11111222,11111222,11144222' 
ADCP,ioos:station:wmo:42369:1,2011-02-03T04:20:00Z,27.2070,-90.2830,60.4,7.3,52.0,99.0,'11111222,11111222,11144222' 
ADCP,ioos:station:wmo:42369:1,2011-02-03T04:40:00Z,27.2070,-90.2830,60.4,7.7,48.0,99.0,'11111222,11111222,11144222' 
ADCP,ioos:station:wmo:42369:1,2011-02-03T05:00:00Z,27.2070,-90.2830,60.4,7.1,50.0,99.0,'11111222,11111222,11144222' 
ADCP,ioos:station:wmo:42369:1,2011-02-03T05:20:00Z,27.2070,-90.2830,60.4,6.6,59.0,99.0,'11111222,11111222,11144222' 
ADCP,ioos:station:wmo:42369:1,2011-02-03T05:40:00Z,27.2070,-90.2830,60.4,7.5,49.0,99.0,'11111222,11111222,11144222' 
ADCP,ioos:station:wmo:42369:1,2011-02-03T06:00:00Z,27.2070,-90.2830,60.4,5.8,59.0,99.0,'11111222,11111222,11144222' 
ADCP,ioos:station:wmo:42369:1,2011-02-03T06:20:00Z,27.2070,-90.2830,60.4,5.5,64.0,99.0,'11111222,11111222,11144222' 
ADCP,ioos:station:wmo:42369:1,2011-02-03T06:40:00Z,27.2070,-90.2830,60.4,4.8,74.0,99.0,'11111222,11111222,11144222' 
ADCP,ioos:station:wmo:42369:1,2011-02-03T07:00:00Z,27.2070,-90.2830,60.4,7.4,53.0,99.0,'11111222,11111222,11144222' 
ADCP,ioos:station:wmo:42369:1,2011-02-03T07:20:00Z,27.2070,-90.2830,60.4,9.7,38.0,99.0,'11111222,11111222,11144222' 
ADCP,ioos:station:wmo:42369:1,2011-02-03T07:40:00Z,27.2070,-90.2830,60.4,5.8,71.0,99.0,'11111222,11111222,11144222' 
ADCP,ioos:station:wmo:42369:1,2011-02-03T08:00:00Z,27.2070,-90.2830,60.4,8.0,48.0,99.0,'11111222,11111222,11144222' 
ADCP,ioos:station:wmo:42369:1,2011-02-03T08:20:00Z,27.2070,-90.2830,60.4,8.0,45.0,99.0,'11111222,11111222,11144222' 
ADCP,ioos:station:wmo:42369:1,2011-02-03T08:40:00Z,27.2070,-90.2830,60.4,5.9,64.0,99.0,'11111222,11111222,11144222' 
ADCP,ioos:station:wmo:42369:1,2011-02-03T09:00:00Z,27.2070,-90.2830,60.4,4.8,74.0,99.0,'11111222,11111222,11144222' 
ADCP,ioos:station:wmo:42369:1,2011-02-03T09:20:00Z,27.2070,-90.2830,60.4,5.0,70.0,99.0,'11111222,11111222,11144222' 
ADCP,ioos:station:wmo:42369:1,2011-02-03T09:40:00Z,27.2070,-90.2830,60.4,5.5,70.0,99.0,'11111222,11111222,11144222' 
ADCP,ioos:station:wmo:42369:1,2011-02-03T10:00:00Z,27.2070,-90.2830,60.4,4.5,72.0,99.0,'11111222,11111222,11144222' 
ADCP,ioos:station:wmo:42369:1,2011-02-03T10:20:00Z,27.2070,-90.2830,60.4,5.8,62.0,99.0,'11111222,11111222,11144222' 
ADCP,ioos:station:wmo:42369:1,2011-02-03T10:40:00Z,27.2070,-90.2830,60.4,9.0,48.0,99.0,'11111222,11111222,11144222' 
ADCP,ioos:station:wmo:42369:1,2011-02-03T11:20:00Z,27.2070,-90.2830,60.4,10.2,63.0,99.0,'11111222,11111222,11144222' 
ADCP,ioos:station:wmo:42369:1,2011-02-03T11:40:00Z,27.2070,-90.2830,60.4,9.8,60.0,99.0,'11111222,11111222,11144222' 
ADCP,ioos:station:wmo:42369:1,2011-02-03T12:00:00Z,27.2070,-90.2830,60.4,8.6,55.0,99.0,'11111222,11111222,11144222' 
ADCP,ioos:station:wmo:42369:1,2011-02-03T12:20:00Z,27.2070,-90.2830,60.4,8.9,54.0,99.0,'11111222,11111222,11144222' 
ADCP,ioos:station:wmo:42369:1,2011-02-03T12:40:00Z,27.2070,-90.2830,60.4,8.6,49.0,99.0,'11111222,11111222,11144222' 
ADCP,ioos:station:wmo:42369:1,2011-02-03T13:00:00Z,27.2070,-90.2830,60.4,8.3,49.0,99.0,'11111222,11111222,11144222' 
ADCP,ioos:station:wmo:42369:1,2011-02-03T13:20:00Z,27.2070,-90.2830,60.4,5.9,60.0,99.0,'11111222,11111222,11144222' 
ADCP,ioos:station:wmo:42369:1,2011-02-03T13:40:00Z,27.2070,-90.2830,60.4,7.4,46.0,99.0,'11111222,11111222,11144222' 
ADCP,ioos:station:wmo:42369:1,2011-02-03T14:00:00Z,27.2070,-90.2830,60.4,7.5,49.0,99.0,'11111222,11111222,11144222' 
ADCP,ioos:station:wmo:42369:1,2011-02-03T14:20:00Z,27.2070,-90.2830,60.4,6.1,60.0,99.0,'11111222,11111222,11144222' 
ADCP,ioos:station:wmo:42369:1,2011-02-03T14:40:00Z,27.2070,-90.2830,60.4,4.9,67.0,99.0,'11111222,11111222,11144222' 
ADCP,ioos:station:wmo:42369:1,2011-02-03T15:00:00Z,27.2070,-90.2830,60.4,8.2,51.0,99.0,'11111222,11111222,11144222' 
ADCP,ioos:station:wmo:42369:1,2011-02-03T15:20:00Z,27.2070,-90.2830,60.4,8.7,51.0,99.0,'11111222,11111222,11144222' 
ADCP,ioos:station:wmo:42369:1,2011-02-03T15:40:00Z,27.2070,-90.2830,60.4,8.7,47.0,99.0,'11111222,11111222,11144222' 
ADCP,ioos:station:wmo:42369:1,2011-02-03T16:00:00Z,27.2070,-90.2830,60.4,8.6,50.0,99.0,'11111222,11111222,11144222' 
ADCP,ioos:station:wmo:42369:1,2011-02-03T16:20:00Z,27.2070,-90.2830,60.4,9.1,49.0,99.0,'11111222,11111222,11144222' 
ADCP,ioos:station:wmo:42369:1,2011-02-03T16:40:00Z,27.2070,-90.2830,60.4,7.9,47.0,99.0,'11111222,11111222,11144222' 
ADCP,ioos:station:wmo:42369:1,2011-02-03T17:00:00Z,27.2070,-90.2830,60.4,5.9,55.0,99.0,'11111222,11111222,11144222' 
ADCP,ioos:station:wmo:42369:1,2011-02-03T17:20:00Z,27.2070,-90.2830,60.4,4.9,70.0,99.0,'11111222,11111222,11144222' 
ADCP,ioos:station:wmo:42369:1,2011-02-03T17:40:00Z,27.2070,-90.2830,60.4,4.4,75.0,99.0,'11111222,11111222,11144222' 
ADCP,ioos:station:wmo:42369:1,2011-02-03T18:00:00Z,27.2070,-90.2830,60.4,5.2,68.0,99.0,'11111222,11111222,11144222' 
ADCP,ioos:station:wmo:42369:1,2011-02-03T18:20:00Z,27.2070,-90.2830,60.4,6.8,55.0,99.0,'11111222,11111222,11144222' 
ADCP,ioos:station:wmo:42369:1,2011-02-03T18:40:00Z,27.2070,-90.2830,60.4,5.8,72.0,99.0,'11111222,11111222,11144222' 
ADCP,ioos:station:wmo:42369:1,2011-02-03T19:00:00Z,27.2070,-90.2830,60.4,6.8,60.0,99.0,'11111222,11111222,11144222' 
ADCP,ioos:station:wmo:42369:1,2011-02-03T19:20:00Z,27.2070,-90.2830,60.4,5.3,69.0,99.0,'11111222,11111222,11144222' 
ADCP,ioos:station:wmo:42369:1,2011-02-03T19:40:00Z,27.2070,-90.2830,60.4,4.7,74.0,99.0,'11111222,11111222,11144222' 
ADCP,ioos:station:wmo:42369:1,2011-02-03T20:00:00Z,27.2070,-90.2830,60.4,5.1,79.0,99.0,'11111222,11111222,11144222' 
ADCP,ioos:station:wmo:42369:1,2011-02-03T20:20:00Z,27.2070,-90.2830,60.4,5.0,74.0,99.0,'11111222,11111222,11144222' 
ADCP,ioos:station:wmo:42369:1,2011-02-03T20:40:00Z,27.2070,-90.2830,60.4,4.9,74.0,99.0,'11111222,11111222,11144222' 
ADCP,ioos:station:wmo:42369:1,2011-02-03T21:00:00Z,27.2070,-90.2830,60.4,6.3,61.0,99.0,'11111222,11111222,11144222' 